Location: Charbonni�res
(45.9952°N, 2.9982°E)
Time: 14:43:37
(UTC+00:00)

ATLAS CENTAUR R/B - Pass Details

Date: 29 November 2020
Orbit: 477 x 668 km, 64.7° (Epoch: 12 January)

Event Time Altitude Azimuth Distance (km) Brightness Sun altitude
Exits shadow 06:08:44 14° 296° (WNW) 1,477 2.8 -10.0°
Maximum altitude 06:11:21 28° 242° (WSW) 977 2.2 -9.6°
Drops below altitude 10° 06:14:47 10° 182° (S) 1,775 4.2 -9.0°
Sets 06:17:13 0° 171° (S) 2,697 5.3 -8.6°
